Погода в Сивоте

Греция     39°24′31″N   20°14′32″E
темп.,
°C
ветер,
м/с
пор.,
м/с
влажн.,
%
обл.,
%
осадки,
мм/ч
давл.,
гПа
погр.,
м
5 марта, пт
пт523:00+10в11750 0.0 1022142
02:00+9в22780 0.0 102185
05:00+8в22780 0.0 102169
08:00+8в22780 0.0 102085
11:00+13ююв336017 0.0 1020804
14:00+14ююз335944 0.0 1019827
17:00+13ююз3463100 0.0 1019999
20:00+11вюв237195 0.0 1019289
6 марта, сб
сб623:00+10в2275100 0.0 102197
02:00+11вюв237383 0.1 1021127
05:00+10в2376100 0.1 1020149
08:00+10в2278100 0.3 1021136
11:00+10всв1278100 0.8 1022186
14:00+11в237998 2.3 1022208
17:00+13юз117349 0.1 1022419
20:00+11ссз128646 0.1 1023162
7 марта, вс
вс723:00+10всв22860 0.0 102475
02:00+9всв22850 0.0 102458
05:00+8всв22840 0.0 102470
08:00+9всв33810 0.0 102486
11:00+14ююв11610 0.0 1024467
14:00+14зюз22640 0.0 1023559
17:00+13з22670 0.0 1021367
20:00+11всв11750 0.0 102155
8 марта, пн
пн823:00+10вюв22770 0.0 102182
02:00+10в22790 0.0 1020108
05:00+9в22823 0.0 101881
08:00+9в228343 0.0 101894
11:00+13ю2369100 0.0 1018737
14:00+14ю3366100 0.1 1016812
17:00+14ю2370100 0.0 1014622
20:00+11вюв118160 0.0 1015171
9 марта, вт
вт923:00+10в12840 0.0 1015103
02:00+9всв22830 0.0 101455
05:00+9всв22840 0.0 101359
08:00+9всв22790 0.0 101268
11:00+15ссз23510 0.0 1012528
14:00+15зсз56630 0.0 1012646
17:00+14сз45730 0.0 1011603
20:00+12ссз35880 0.0 1013243